sat.trackr.live / text

‹ back to catalog

KUIPER-00050

NORAD 64510 · 2025-134L

PAYLOAD ACTIVE UNKNOWN

§ Identity

Operator
Country
US
Launch date
2025-06-23
Launch site
AFETR
Launch vehicle
Mass (kg)
RCS (m²)

External: N2YO · Heavens-Above · Gunter

§ Orbital elements

Epoch: 2026-09-21T14:13:01.534368Z

Period
97.30 min
Inclination
51.9002°
Eccentricity
0.0000581
Mean motion
14.79928733 rev/d
Perigee alt
629.1 km
Apogee alt
630.0 km
Semi-major
7,007.7 km
B*
2.8257e-4
RAAN
64.2724°
Arg perigee
121.0230°
Mean anomaly
239.0789°
Rev number
6,940

§ Raw data

KUIPER-000501 64510U 25134L   26264.59237887  .00001933  00000+0  28257-3 0  99922 64510  51.9002  64.2724 0000581 121.0230 239.0789 14.79928733 69403

JSON: /api/v1/satellites/64510 · /tle

For live sub-satellite position, see the globe view (requires WebGL).

§ Visibility from observer

Set your observer location to see the next 7 days of passes ≥ 10°. The values pass through the URL so the page stays shareable.

No JS? Fill the form by hand. The geolocation button needs JavaScript.